2020-081C

Last updated on Tue Dec 08 2020 00:02:03 GMT+0000 (Coordinated Universal Time)

1 46907U 20081C 20342.49254215 .00000567 00000-0 52747-4 0 9997 2 46907 36.9053 281.9469 0007786 217.4691 142.5443 14.98577761 4520

Satellite not in orbit

2020-081C